FW0097 Weather Reports


Display with metric or nautical units.
time (UTC)temp
F
wind
direction
speed
MPH
gust
MPH
rain 1hr
in
rain 24hr
in
rain mn
in
humidity
%
barometer
mb
20240424071553 46 338 0.0 0.0 0.00 0.00 0.00 77 1004.4
20240424070056 45 26 0.0 0.0 0.00 0.00 0.00 78 1004.4
20240424064546 45 61 0.0 0.0 0.00 0.00 0.00 79 1004.6
20240424063041 44 5 0.0 3.0 0.00 0.00 0.00 79 1004.6
20240424061546 44 355 0.0 3.0 0.00 0.00 0.00 80 1004.7
20240424060037 44 36 0.0 1.0 0.00 0.00 0.00 81 1004.7
20240424054536 44 54 0.0 6.0 0.00 0.00 0.00 82 1004.8
20240424053033 43 329 0.0 9.0 0.00 0.00 0.00 81 1004.8
20240424051531 43 341 0.0 8.0 0.00 0.00 0.00 81 1004.9
20240424050031 44 328 0.0 3.0 0.00 0.00 0.00 81 1005.1
20240424044524 44 360 0.0 2.0 0.00 0.00 0.00 80 1005.0
20240424043021 43 331 0.0 0.0 0.00 0.00 0.00 81 1005.1
20240424041517 43 360 0.0 0.0 0.00 0.00 0.00 81 1005.1
20240424040016 43 61 0.0 0.0 0.00 0.00 0.00 82 1005.0
20240424034518 43 49 0.0 0.0 0.00 0.00 0.00 82 1005.1
20240424033109 44 51 0.0 1.0 0.00 0.00 0.00 80 1005.3
20240424031508 44 333 0.0 0.0 0.00 0.00 0.00 80 1005.5
20240424030008 44 10 0.0 0.0 0.00 0.00 0.00 79 1005.5
20240424024509 44 13 0.0 0.0 0.00 0.00 0.00 79 1005.4
20240424023033 44 36 0.0 0.0 0.00 0.00 0.00 79 1005.6
20240424021533 44 11 0.0 0.0 0.00 0.00 0.00 79 1005.6
20240424020036 44 49 0.0 0.0 0.00 0.00 0.00 80 1005.8
20240424014526 44 11 0.0 0.0 0.00 0.00 0.00 80 1006.1
20240424013029 44 42 0.0 1.0 0.00 0.00 0.00 78 1006.2
20240424011529 45 12 0.0 0.0 0.00 0.00 0.00 78 1006.3
20240424010025 45 5 0.0 2.0 0.00 0.00 0.00 78 1006.5
20240424004522 45 42 0.0 0.0 0.00 0.00 0.00 77 1006.6
20240424003017 45 38 0.0 0.0 0.00 0.00 0.00 78 1006.8
20240424001516 45 46 0.0 3.0 0.00 0.00 0.00 77 1007.0
20240424000012 45 355 0.0 1.0 0.00 0.00 0.00 77 1007.2
20240423234513 45 24 0.0 2.0 0.00 0.00 0.00 77 1007.3
20240423233014 45 5 0.0 0.0 0.00 0.00 0.00 77 1007.6
20240423231506 45 350 0.0 1.0 0.00 0.00 0.00 77 1007.8
20240423230004 45 360 0.0 2.0 0.00 0.00 0.00 77 1008.0
20240423224659 45 22 0.0 0.0 0.00 0.00 0.00 77 1008.3
20240423223058 46 355 0.0 0.0 0.00 0.00 0.00 76 1008.5
20240423221557 45 5 0.0 0.0 0.00 0.00 0.00 77 1008.7
20240423220054 46 40 0.0 0.0 0.00 0.00 0.00 76 1008.7
20240423214554 46 360 0.0 0.0 0.00 0.00 0.00 76 1008.8
20240423213056 46 9 0.0 0.0 0.00 0.00 0.00 75 1009.0
20240423211649 46 5 0.0 1.0 0.00 0.00 0.00 75 1009.1
20240423210046 46 55 0.0 0.0 0.00 0.00 0.00 76 1009.2
20240423204545 47 355 0.0 0.0 0.00 0.00 0.00 76 1009.3
20240423203044 47 355 0.0 0.0 0.00 0.00 0.00 76 1009.5
20240423201545 47 15 0.0 0.0 0.00 0.00 0.00 76 1009.5
20240423200012 47 5 0.0 1.0 0.00 0.00 0.00 75 1009.7
20240423194516 47 39 0.0 0.0 0.00 0.00 0.00 75 1010.0
20240423193004 47 360 0.0 0.0 0.00 0.00 0.00 74 1010.2
20240423191505 48 38 0.0 0.0 0.00 0.00 0.00 73 1010.2
20240423190003 48 31 0.0 0.0 0.00 0.00 0.00 73 1010.4
20240423184502 48 55 0.0 0.0 0.00 0.00 0.00 72 1010.4
20240423183103 48 58 0.0 0.0 0.00 0.00 0.00 72 1010.5
20240423181558 48 40 0.0 0.0 0.00 0.00 0.00 72 1010.5
20240423180058 48 27 0.0 0.0 0.00 0.00 0.00 72 1010.4
20240423174626 49 5 0.0 0.0 0.00 0.00 0.00 71 1010.6
20240423173055 49 349 0.0 0.0 0.00 0.00 0.00 69 1010.6
20240423171553 49 355 0.0 0.0 0.00 0.00 0.00 69 1010.6
20240423170108 50 330 0.0 0.0 0.00 0.00 0.00 69 1010.6
20240423164552 50 360 0.0 0.0 0.00 0.00 0.00 68 1010.8
20240423163123 50 349 0.0 0.0 0.00 0.00 0.00 68 1010.9
20240423161518 50 342 0.0 0.0 0.00 0.00 0.00 67 1011.1
20240423160016 50 331 0.0 0.0 0.00 0.00 0.00 66 1011.2
20240423154512 51 5 0.0 0.0 0.00 0.00 0.00 65 1011.5
20240423153010 50 87 0.0 0.0 0.00 0.00 0.00 68 1011.6
20240423151508 50 88 0.0 0.0 0.00 0.00 0.00 68 1012.0
20240423150006 50 88 0.0 1.0 0.00 0.00 0.00 68 1012.2
20240423144502 50 89 0.0 1.0 0.00 0.00 0.00 64 1012.4
20240423143101 52 307 0.0 1.0 0.00 0.00 0.00 57 1012.4
20240423141600 52 14 0.0 0.0 0.00 0.00 0.00 53 1012.7
20240423140059 53 35 0.0 0.0 0.00 0.00 0.00 54 1012.7
20240423134555 52 33 0.0 1.0 0.00 0.00 0.00 54 1012.7
20240423133111 52 10 0.0 5.0 0.00 0.00 0.00 55 1012.9
20240423131553 52 348 0.0 1.0 0.00 0.00 0.00 56 1013.1
20240423130050 52 347 0.0 6.0 0.00 0.00 0.00 56 1013.3
20240423124546 51 355 0.0 4.0 0.00 0.00 0.00 56 1013.7
20240423123043 51 40 0.0 2.0 0.00 0.00 0.00 56 1013.8
20240423121540 51 74 0.0 1.0 0.00 0.00 0.00 59 1014.1
20240423120043 50 59 0.0 4.0 0.00 0.00 0.00 60 1014.3
20240423114505 49 5 0.0 2.0 0.00 0.00 0.00 62 1014.5
20240423113100 48 340 0.0 4.0 0.00 0.00 0.00 64 1014.7
20240423111556 48 355 0.0 5.0 0.00 0.00 0.00 67 1015.1
20240423110053 48 9 0.0 0.0 0.00 0.00 0.00 67 1015.5
20240423104550 48 15 0.0 3.0 0.00 0.00 0.00 67 1015.8
20240423103051 47 345 0.0 0.0 0.00 0.00 0.00 67 1016.1
20240423101544 47 31 0.0 3.0 0.00 0.00 0.00 68 1016.3
20240423100042 46 355 0.0 4.0 0.00 0.00 0.00 68 1016.6
20240423094511 46 63 0.0 2.0 0.00 0.00 0.00 69 1016.8
20240423093007 46 360 0.0 5.0 0.00 0.00 0.00 69 1016.9
20240423091502 46 48 0.0 4.0 0.00 0.00 0.00 69 1017.0
20240423090059 45 344 0.0 3.0 0.00 0.00 0.00 70 1017.2
20240423084557 45 11 0.0 3.0 0.00 0.00 0.00 71 1017.3
20240423083103 45 355 0.0 8.0 0.00 0.00 0.00 71 1017.5
20240423081548 44 46 0.0 2.0 0.00 0.00 0.00 73 1017.8
20240423080047 43 5 0.0 4.0 0.00 0.00 0.00 74 1017.9
20240423074640 41 355 0.0 5.0 0.00 0.00 0.00 76 1018.0
20240423073038 40 22 0.0 9.0 0.00 0.00 0.00 78 1018.1